« Back
NWS Peachtree City, Ga » Text Product » MCN Terminal Aerodrome Forecast


Printer-friendly Version
Current Version              Previous Versions:   1  2  3  4  5  6  7  8  9  

Terminal Aerodrome Forecast

574
FTUS42 KFFC 251100
TAFMCN
TAF
KMCN 251121Z 2512/2612 23003KT P6SM SCT045
     FM251500 26007KT P6SM BKN050
      TEMPO 2519/2523 5SM -TSRA BKN035CB
     FM260000 23003KT P6SM SCT050
     FM260900 00000KT 5SM BR FEW060=



USA.gov is the U.S. government's official web portal to all federal, state and local government web resources and services.